Yuma MCAS, AZ

6:06 PM MST on July 27, 2017 (GMT -0700)
Yuma Marine Corps Air Station

Weather History for KNYL - August, 2014

Change the Weather History Date:

Monday, August 18, 2014

  Actual Average Record
Temperature  
Mean Temperature 88 °F 94 °F  
Max Temperature 98 °F 106 °F 116 °F (1960)
Min Temperature 78 °F 82 °F 61 °F (1918)
Degree Days  
Heating Degree Days 0 0  
Month to date heating degree days 0 0  
Since 1 June heating degree days 0 0  
Since 1 July heating degree days 0 0  
Cooling Degree Days 23 29  
Month to date cooling degree days 512 534  
Year to date cooling degree days 3461 3080  
Since 1 June cooling degree days 2299 2168  
Growing Degree Days 38 (Base 50)    
Moisture  
Dew Point 68 °F    
Average Humidity 50    
Maximum Humidity 69    
Minimum Humidity 30    
Precipitation  
Precipitation 0.06 in 0.02 in 1.19 in (1906)
Month to date precipitation 0.08 0.28  
Year to date precipitation 0.43 1.90  
Sea Level Pressure  
Sea Level Pressure 29.79 in    
Wind  
Wind Speed 13 mph (SSE)    
Max Wind Speed 37 mph    
Max Gust Speed 44 mph    
Visibility 9 miles    
Events Rain , Thunderstorm    
T = Trace of Precipitation, MM = Missing Value Source: NWS Daily Summary

Daily Weather History Graph

Daily Weather History Graph

Search for Another Location

Airport or City:

Trip Planner

Search our weather history database for the weather conditions in past years. The results will help you decide how hot, cold, wet, or windy it might be!

Date:

Astronomy

Aug. 18, 2014 Rise Set
Actual Time 6:04 AM MST 7:19 PM MST
Civil Twilight 5:38 AM MST 7:45 PM MST
Nautical Twilight 5:07 AM MST 8:16 PM MST
Astronomical Twilight 4:35 AM MST 8:48 PM MST
Moon 12:18 AM MST (8/18) 2:21 PM MST (8/18)
Length of Visible Light 14h 07m
Length of Day
13h 15m
Last Quarter, 37% of the Moon is Illuminated
Aug 18
Last Quarter
Aug 25
New
Sep 2
First Quarter
Sep 8
Full
Sep 15
Last Quarter

Hourly Weather History & Observations

Time (MST) Temp. Heat Index Dew Point Humidity Pressure Visibility Wind Dir Wind Speed Gust Speed Precip Events Conditions
12:32 AM 98.1 °F 98.6 °F 61.0 °F 29% 29.78 in 4.0 mi East 36.8 mph 42.6 mph N/A   Haze
12:57 AM 91.9 °F 94.5 °F 66.0 °F 42% 29.77 in 2.0 mi East 31.1 mph 39.1 mph N/A   Haze
1:03 AM 90.0 °F 92.4 °F 66.0 °F 45% 29.78 in 1.5 mi East 29.9 mph 41.4 mph N/A   Haze
1:11 AM 88.0 °F 91.4 °F 68.0 °F 51% 29.79 in 3.0 mi East 27.6 mph 39.1 mph N/A   Haze
1:18 AM - - - N/A% - - North - - N/A   Unknown
1:22 AM 88.0 °F 90.7 °F 66.9 °F 49% 29.79 in 4.0 mi East 25.3 mph 32.2 mph N/A   Haze
1:44 AM 87.1 °F 89.9 °F 66.9 °F 51% 29.80 in 7.0 mi ESE 21.9 mph 28.8 mph 0.00 in Rain Light Rain
1:57 AM 84.9 °F 87.6 °F 66.9 °F 55% 29.80 in 10.0 mi ESE 24.2 mph 31.1 mph 0.00 in Rain Light Rain
2:57 AM 84.0 °F 87.8 °F 69.1 °F 61% 29.78 in 10.0 mi SSE 18.4 mph - 0.00 in   Scattered Clouds
3:00 AM - - - N/A% - - North - - N/A   Unknown
3:57 AM 79.0 °F - 69.1 °F 72% 29.81 in 10.0 mi SSE 25.3 mph 35.7 mph 0.00 in Rain Light Rain
4:57 AM 81.0 °F 84.1 °F 69.1 °F 67% 29.77 in 10.0 mi SE 9.2 mph - 0.06 in   Scattered Clouds
5:53 AM 80.6 °F 83.9 °F 69.8 °F 70% 29.80 in 10.0 mi Calm Calm - N/A Thunderstorm Thunderstorm
5:57 AM 81.0 °F 84.1 °F 69.1 °F 67% 29.80 in 10.0 mi South 5.8 mph - N/A Thunderstorm Thunderstorm
6:08 AM 80.1 °F 83.2 °F 70.0 °F 71% 29.82 in 10.0 mi South 5.8 mph - N/A   Mostly Cloudy
6:57 AM 81.0 °F 83.8 °F 68.0 °F 65% 29.85 in 10.0 mi South 6.9 mph - N/A   Mostly Cloudy
7:57 AM 81.0 °F 84.1 °F 69.1 °F 67% 29.85 in 10.0 mi SSW 9.2 mph - N/A   Mostly Cloudy
8:57 AM 84.0 °F 86.5 °F 66.9 °F 56% 29.85 in 10.0 mi Calm Calm - N/A   Mostly Cloudy
9:57 AM 84.2 °F - 35.6 °F 18% - 10.0 mi SE 5.8 mph - N/A   Mostly Cloudy
10:57 AM 89.1 °F 92.1 °F 66.9 °F 48% 29.84 in 10.0 mi South 5.8 mph - N/A   Mostly Cloudy
11:57 AM 90.0 °F 91.7 °F 64.9 °F 43% 29.83 in 10.0 mi SSE 8.1 mph - N/A   Mostly Cloudy
12:57 PM 95.0 °F 97.9 °F 66.0 °F 38% 29.82 in 10.0 mi South 11.5 mph 20.7 mph N/A   Mostly Cloudy
1:57 PM 96.1 °F 99.9 °F 66.9 °F 38% 29.80 in 10.0 mi South 17.3 mph 23.0 mph N/A   Mostly Cloudy
2:57 PM 97.0 °F 102.8 °F 69.1 °F 40% 29.77 in 10.0 mi South 17.3 mph - N/A   Mostly Cloudy
3:57 PM 93.9 °F 100.8 °F 71.1 °F 47% 29.76 in 10.0 mi South 20.7 mph 25.3 mph N/A   Mostly Cloudy
4:57 PM 93.9 °F 97.5 °F 66.9 °F 41% 29.75 in 10.0 mi South 16.1 mph - N/A   Mostly Cloudy
5:57 PM 93.0 °F 99.0 °F 70.0 °F 47% 29.73 in 10.0 mi South 16.1 mph - N/A   Scattered Clouds
6:57 PM 91.0 °F 96.6 °F 70.0 °F 50% 29.74 in 10.0 mi South 13.8 mph - N/A   Partly Cloudy
7:57 PM 90.0 °F 96.9 °F 72.0 °F 55% 29.74 in 10.0 mi South 8.1 mph - N/A   Partly Cloudy
8:57 PM 89.1 °F 96.0 °F 72.0 °F 57% 29.76 in 10.0 mi SSE 11.5 mph - N/A   Partly Cloudy
9:57 PM 89.1 °F 96.0 °F 72.0 °F 57% 29.77 in 10.0 mi SSE 10.4 mph - N/A   Scattered Clouds
10:57 PM 87.1 °F 95.4 °F 73.9 °F 65% 29.77 in 10.0 mi SSE 12.7 mph - N/A   Scattered Clouds
11:57 PM 86.0 °F 95.1 °F 75.0 °F 70% 29.76 in 10.0 mi SSE 13.8 mph - N/A   Clear